Погода в Геннади

Греция     36°01′25″N   27°55′23″E
темп.,
°C
ветер,
м/с
пор.,
м/с
влажн.,
%
обл.,
%
осадки,
мм/ч
давл.,
гПа
погр.,
м
24 сентября, пт
пт2400:00+21ссз1316520 0.0 1010962
03:00+20ссз912520 0.0 1010675
06:00+20ссз79510 0.0 1011566
09:00+20сз33490 0.0 1013523
12:00+22ююв11390 0.0 1014708
15:00+22ю42450 0.0 1014821
18:00+23з44390 0.0 1013622
21:00+22сз5648100 0.0 1014337
25 сентября, сб
сб2500:00+22сз445188 0.0 1015287
03:00+22сз44545 0.0 1015292
06:00+21сз33563 0.0 1015209
09:00+23сз12485 0.0 1017248
12:00+24ююв32455 0.0 1018487
15:00+25ююз32440 0.0 1017620
18:00+25з55470 0.0 1016362
21:00+23сз33510 0.0 1017148
26 сентября, вс
вс2600:00+23сз22550 0.0 1017121
03:00+24с11510 0.0 1016114
06:00+24св22450 0.0 1016182
09:00+25всв11450 0.0 1017243
12:00+26юв31495 0.0 1017398
15:00+26ююз32483 0.0 1016428
18:00+26зюз4557100 0.0 1014248
21:00+24зсз4461100 0.0 1014155
27 сентября, пн
пн2700:00+24зсз3360100 0.0 1014139
03:00+23зсз4569100 0.0 1012192
06:00+23зсз4677100 0.0 1011246
09:00+24зсз3469100 0.0 1012286
12:00+27з445356 0.0 1011265
15:00+27з88530 0.0 1010442
18:00+25зсз810610 0.0 1010373
21:00+24зсз79670 0.0 1010343
28 сентября, вт
вт2800:00+24зсз68720 0.0 1010266
03:00+24зсз79750 0.0 1009294
06:00+23сз57740 0.0 1009251
09:00+25зсз45600 0.0 1009291
12:00+27зюз33530 0.0 1010220
15:00+27з76541 0.0 1010468
18:00+26з77591 0.0 1010234
21:00+24сз45640 0.0 1011151